GFSNIL_sfc_thetae_000.txt.gz
Theta_e
285 286 284 283 283 281 280 280 280 279 279 279 279 279 279 278 279 279 279 278 279 279
285 283 283 281 280 279 279 279 278 278 277 278 278 278 277 277 277 278 278 278 279 279
284 282 281 279 278 278 277 277 276 277 276 276 276 276 276 276 277 277 277 278 277 277
282 280 279 279 278 277 277 276 276 276 275 275 275 275 274 275 275 273 274 274 274 274
280 279 278 277 276 276 275 275 275 274 274 274 274 273 273 272 272 271 271 272 272 272
279 278 276 276 276 275 275 274 274 273 272 272 272 272 272 271 271 271 270 271 270 270
277 277 275 275 275 274 273 273 272 272 272 271 271 271 271 271 270 270 270 271 271 271
276 275 275 274 273 272 272 272 272 271 270 270 269 270 270 270 270 270 271 272 272 272
275 274 273 272 271 271 270 270 270 269 269 268 270 273 275 274 272 272 271 270 271 272
274 272 271 271 270 270 269 270 269 269 269 269 269 273 274 275 273 272 271 271 271 271
272 271 270 269 269 269 269 269 268 268 269 268 269 273 274 274 273 271 271 272 272 273
272 270 269 268 268 268 268 268 268 268 267 266 267 270 272 274 271 271 271 273 274 274
271 269 268 268 268 268 268 267 268 267 267 267 265 269 272 274 270 268 271 272 273 274
269 268 268 267 267 266 266 267 266 266 267 267 268 267 272 274 273 271 272 271 271 271

GFSNIL_sfc_thetae_003.txt.gz
Theta_e
285 285 284 284 284 283 283 281 280 280 279 279 279 279 279 278 278 279 279 278 279 279
285 285 284 283 283 282 281 280 279 279 278 278 278 278 278 277 278 278 279 279 279 279
285 285 284 282 281 280 280 279 278 277 277 277 277 277 277 277 277 277 278 278 277 277
284 284 282 282 281 280 279 278 277 277 276 276 276 276 275 276 276 274 274 275 275 275
282 281 281 281 279 278 278 277 277 276 276 275 275 274 274 273 274 273 272 273 273 272
281 280 280 278 277 277 276 276 276 275 274 274 273 273 273 272 272 272 272 271 271 270
280 280 278 277 276 276 275 274 274 273 272 272 272 272 272 272 271 271 271 271 271 271
280 279 277 276 276 274 274 273 273 272 271 271 271 271 271 271 271 270 270 271 271 272
278 276 275 275 273 273 272 272 272 271 270 269 271 274 276 273 271 272 271 271 272 272
276 275 274 274 273 272 271 271 271 270 270 270 271 276 277 277 274 273 272 272 271 271
275 274 273 272 272 271 270 270 269 269 270 270 271 276 277 276 274 273 272 272 272 272
275 273 272 271 271 270 269 269 269 269 268 269 270 276 276 275 273 273 272 273 273 273
274 273 271 271 270 269 269 268 269 268 267 268 266 273 275 275 273 267 270 272 273 275
273 272 271 270 270 268 268 269 268 267 267 266 266 268 275 276 272 270 269 271 271 273

GFSNIL_sfc_thetae_006.txt.gz
Theta_e
287 285 286 284 284 284 283 283 282 281 280 280 280 280 279 279 278 278 279 278 278 279
287 285 285 284 284 284 283 281 280 280 280 279 279 279 278 278 278 278 278 278 278 278
286 285 285 282 282 282 281 281 279 279 279 278 278 278 277 277 277 277 277 278 277 277
284 284 283 282 281 280 280 280 280 279 278 277 277 277 276 276 276 275 275 275 275 275
284 283 282 282 281 280 280 279 279 278 277 277 276 276 275 274 275 273 273 274 273 273
282 282 283 282 280 280 279 278 278 277 277 276 275 275 275 274 273 273 273 273 273 272
282 282 282 282 280 279 279 277 277 277 276 275 274 273 273 273 272 271 272 272 272 272
283 283 282 279 279 278 278 277 276 275 274 273 273 273 272 272 271 271 271 271 272 272
282 281 279 278 278 277 276 275 275 274 273 271 272 277 278 274 272 271 271 271 272 273
280 279 277 277 276 275 275 274 273 273 272 271 272 279 279 277 273 272 272 272 272 272
278 277 276 276 275 275 275 274 273 272 272 272 271 280 281 279 274 273 273 272 272 272
278 277 275 275 275 275 274 273 273 272 271 271 271 280 281 279 273 273 272 273 273 273
278 277 275 275 274 274 274 273 273 271 271 271 270 280 280 279 273 271 271 272 273 275
274 274 274 274 273 272 272 271 271 270 269 270 270 275 280 280 272 270 269 270 270 273

GFSNIL_sfc_thetae_009.txt.gz
Theta_e
288 287 286 285 285 284 284 284 283 282 281 280 281 280 280 280 279 279 279 278 278 279
287 285 286 284 284 284 284 283 281 282 281 280 280 280 279 279 278 278 279 278 278 278
286 286 286 283 283 283 283 282 281 281 281 280 280 279 279 278 278 278 278 278 278 278
286 285 285 283 283 283 282 281 281 281 280 280 279 279 278 277 277 277 276 277 277 276
285 284 284 283 283 283 282 281 281 281 280 280 279 278 278 276 277 276 275 275 275 274
284 283 284 283 282 282 282 280 280 280 279 279 278 277 277 276 276 275 275 275 274 273
284 283 284 284 282 281 281 280 279 279 279 278 277 277 276 276 275 274 274 274 273 273
285 284 284 283 281 281 280 280 279 278 278 277 277 276 275 275 274 273 272 272 272 272
284 283 283 283 281 280 279 279 278 277 277 276 276 281 280 276 273 273 272 271 271 272
281 281 281 280 279 279 278 278 277 277 276 275 276 281 282 279 274 273 272 272 272 272
281 282 280 279 278 278 278 277 277 277 276 276 275 282 283 280 274 273 273 273 273 273
279 280 278 278 277 278 277 277 277 277 275 275 275 282 283 280 273 273 273 273 273 273
276 276 277 278 277 277 278 276 276 275 275 275 274 282 283 279 274 272 272 273 273 275
273 273 274 276 276 275 275 275 274 273 273 273 274 279 283 282 274 272 272 271 272 273

GFSNIL_sfc_thetae_012.txt.gz
Theta_e
288 287 287 286 286 285 285 285 284 283 282 282 281 281 281 281 280 280 280 279 279 279
286 286 286 283 284 285 285 285 282 283 282 281 281 281 281 281 280 280 279 279 279 279
287 286 285 284 284 284 284 283 282 282 282 281 281 281 280 280 279 279 278 279 278 278
284 284 284 284 284 284 283 283 281 282 282 281 280 280 280 280 279 279 278 278 278 277
284 283 283 283 284 283 282 282 282 282 281 281 281 280 280 279 279 278 277 277 277 276
283 283 283 284 284 283 283 282 282 282 281 281 280 280 280 279 278 278 277 277 276 275
283 284 285 285 283 282 283 282 281 281 281 280 280 279 279 279 277 277 276 276 276 275
284 283 284 284 283 282 282 282 281 280 280 280 279 279 278 278 277 276 275 275 275 274
284 283 282 283 283 280 281 281 280 280 280 278 279 283 283 280 277 276 275 273 273 273
284 283 282 280 281 280 280 280 280 280 279 279 279 284 285 284 278 277 275 274 273 273
282 281 281 279 279 279 279 279 279 279 279 279 279 284 286 284 278 277 275 274 274 273
281 280 279 279 279 279 279 279 280 280 279 279 279 283 286 284 276 276 275 274 274 274
279 277 277 278 277 279 279 279 279 279 279 279 278 282 286 284 275 274 273 274 274 276
280 277 276 276 273 274 276 277 276 275 277 277 277 278 285 285 276 275 273 273 273 274

GFSNIL_sfc_thetae_015.txt.gz
Theta_e
290 290 290 290 291 289 289 289 288 287 288 287 286 285 286 286 286 286 286 285 285 285
288 288 288 287 288 289 289 289 288 287 286 285 285 285 285 284 284 284 285 285 284 284
288 288 287 286 286 287 287 287 286 285 285 285 285 285 284 284 284 284 284 284 283 283
287 287 286 285 286 286 286 285 285 285 285 284 284 284 283 284 283 283 283 282 282 282
286 285 285 285 285 285 285 284 284 284 284 284 283 283 283 283 282 282 281 281 281 280
287 286 285 285 285 284 285 284 284 283 283 283 283 282 283 283 282 282 282 281 280 280
286 286 286 286 285 284 284 284 284 283 283 283 282 282 282 282 281 281 281 281 281 280
285 285 285 285 285 285 283 284 284 283 283 283 282 281 281 281 282 281 280 280 280 280
284 284 283 284 284 284 283 283 283 282 282 282 281 285 286 283 281 281 279 278 278 279
283 282 281 282 282 282 282 283 282 282 282 281 282 286 287 286 281 280 280 279 278 277
279 278 280 280 281 281 281 281 281 281 282 281 282 285 287 286 282 280 280 279 278 277
276 276 279 279 279 280 280 280 281 281 281 281 282 285 286 286 283 280 279 278 278 278
275 276 275 276 278 279 279 279 280 280 281 281 281 284 285 286 284 279 278 278 277 278
273 273 273 274 277 277 278 278 278 278 279 279 280 280 284 286 284 279 278 276 275 276

GFSNIL_sfc_thetae_018.txt.gz
Theta_e
295 296 297 297 297 297 297 297 297 295 295 295 295 295 294 293 293 293 293 294 295 293
293 293 294 295 295 296 296 296 296 295 294 294 294 293 293 292 291 292 292 293 293 292
292 292 292 293 292 293 294 294 293 294 293 293 293 292 291 291 291 291 291 291 291 291
292 292 291 291 291 291 292 292 292 292 291 291 291 291 290 290 290 289 289 288 289 289
290 289 289 290 290 291 290 291 290 290 289 289 290 290 289 289 288 288 287 287 287 288
287 287 287 287 288 289 289 289 290 288 288 288 288 288 288 287 288 287 286 287 285 285
286 286 286 286 287 287 288 288 287 288 287 287 287 286 286 285 286 286 285 286 285 284
285 285 284 284 285 286 286 286 287 286 286 285 285 285 285 284 285 284 284 284 284 284
283 283 281 282 283 283 284 285 286 285 285 284 284 286 288 286 284 284 283 283 284 283
281 280 279 280 282 281 282 283 283 284 284 284 285 287 287 287 285 283 283 283 282 281
279 277 278 278 280 279 281 281 281 282 283 284 284 286 287 287 286 284 284 284 283 282
277 275 275 274 276 277 278 280 281 282 282 283 283 286 286 286 285 284 284 283 283 283
276 274 273 274 274 276 277 277 279 280 282 282 283 284 285 285 285 284 284 283 282 283
275 273 273 273 273 273 273 274 276 278 280 281 282 283 284 285 284 284 284 283 282 281

GFSNIL_sfc_thetae_021.txt.gz
Theta_e
295 295 296 296 297 298 298 300 301 299 299 299 299 298 297 296 296 295 295 295 296 295
294 294 293 294 295 296 296 297 297 298 297 297 297 296 296 295 294 294 294 294 294 294
291 292 293 293 293 293 293 294 294 295 295 295 295 294 294 293 293 292 292 293 292 292
290 290 289 289 290 291 291 292 291 292 292 292 292 293 293 292 291 291 291 291 291 291
287 288 287 287 287 289 289 290 290 290 289 290 290 291 290 290 289 289 289 289 289 289
286 286 285 284 286 286 287 287 289 288 288 288 288 289 289 289 288 289 289 289 288 287
284 284 284 283 283 285 285 285 286 286 286 287 287 287 287 287 287 287 288 288 288 288
283 283 283 282 282 283 284 284 284 284 285 285 286 285 285 286 286 285 286 287 286 287
282 281 281 281 280 281 282 282 282 282 283 283 284 287 288 287 285 285 284 284 285 285
281 280 280 279 278 279 279 280 280 281 282 282 283 286 287 288 286 285 284 284 284 284
280 279 279 277 277 277 278 278 278 279 280 281 282 285 286 287 286 285 285 285 284 283
279 278 277 275 275 276 276 276 276 277 277 278 280 283 284 284 284 284 284 285 285 284
278 277 275 275 274 275 274 275 275 275 276 276 277 281 283 283 283 283 283 284 284 285
276 275 275 274 274 273 272 272 271 272 273 274 276 278 282 283 282 282 282 283 284 284

GFSNIL_sfc_thetae_024.txt.gz
Theta_e
290 290 290 290 290 290 290 291 292 293 293 294 295 294 292 290 289 289 290 288 288 289
288 287 287 289 289 289 289 291 290 290 290 291 292 292 291 288 288 288 288 289 288 288
286 287 286 286 286 287 288 289 288 288 288 288 289 289 288 287 287 287 286 288 287 287
284 284 284 283 284 285 285 287 287 287 286 286 286 287 286 286 286 286 286 286 285 286
284 283 282 282 282 283 284 284 285 286 285 286 286 286 285 285 286 285 285 285 285 285
281 281 281 279 280 281 282 282 282 283 284 283 284 284 285 285 285 285 285 286 285 286
280 280 280 280 279 279 280 280 280 281 282 283 283 283 284 284 284 284 285 285 285 286
280 280 279 279 278 278 278 280 280 279 280 280 282 283 283 283 282 283 284 284 284 285
279 279 278 277 277 277 277 277 277 278 278 278 280 284 285 285 283 284 283 283 284 284
277 277 278 278 277 277 276 276 276 276 277 277 278 283 284 285 283 283 283 283 284 284
277 277 277 276 276 276 275 275 275 275 275 275 277 281 283 284 282 282 282 283 283 283
275 275 276 275 275 275 275 274 274 274 273 273 274 279 280 281 279 280 280 282 283 283
274 273 272 273 273 274 273 273 274 273 273 273 272 276 278 278 276 276 278 280 281 283
269 268 268 269 269 269 269 270 269 269 270 270 271 271 276 277 275 276 277 278 279 281

GFSNIL_sfc_thetae_027.txt.gz
Theta_e
286 286 286 286 287 287 287 288 289 288 288 289 291 292 291 289 288 288 288 290 290 291
285 285 285 285 285 285 286 287 287 287 287 287 287 288 289 287 286 286 287 288 288 289
284 284 283 283 283 283 284 285 285 285 285 285 286 286 286 285 285 285 285 286 286 287
283 283 282 282 282 281 282 283 283 283 283 283 283 284 284 284 284 284 285 285 285 285
284 283 282 280 281 280 280 281 282 282 281 281 281 282 282 282 283 283 283 284 284 285
281 280 280 280 281 281 279 278 280 280 280 280 281 281 281 281 282 283 283 284 284 284
278 279 279 280 279 279 279 278 278 280 279 280 279 280 280 281 281 281 282 283 284 284
279 279 278 278 278 278 278 278 278 278 278 278 279 279 279 280 281 281 281 282 282 283
278 279 279 279 279 278 278 277 277 276 276 276 277 281 282 282 280 281 281 281 282 282
278 278 278 278 278 277 277 277 276 276 275 275 276 280 281 281 280 279 280 280 281 282
276 275 275 275 275 275 275 275 275 275 275 275 275 279 279 279 278 277 278 279 280 280
272 271 271 270 270 271 271 271 272 273 272 272 273 277 278 277 275 274 275 276 277 278
270 267 266 267 266 267 267 268 269 268 269 269 269 273 274 274 272 271 272 273 275 278
266 265 264 264 264 264 263 264 263 264 265 265 267 267 272 273 271 271 271 272 273 275

GFSNIL_sfc_thetae_030.txt.gz
Theta_e
283 283 283 283 283 283 283 284 285 285 285 286 287 287 287 287 287 289 290 290 290 291
282 281 282 282 282 283 283 284 284 284 284 284 284 284 285 284 284 284 285 286 286 287
282 282 281 280 279 279 281 282 282 282 283 283 283 283 283 283 284 283 283 285 285 286
281 281 281 280 280 279 279 279 279 280 280 281 281 281 281 281 282 281 282 283 283 284
281 280 279 279 279 280 279 280 278 279 279 279 279 279 280 280 281 281 280 281 282 282
279 278 278 279 279 279 279 279 278 278 278 279 278 278 278 278 279 280 280 280 281 281
278 278 278 278 278 278 278 278 278 277 278 278 278 278 278 278 278 279 280 281 281 281
279 278 278 277 277 277 277 278 278 277 277 277 277 277 277 278 278 278 279 280 280 281
277 277 277 277 277 277 276 276 276 276 276 275 277 280 281 280 277 278 277 277 279 279
274 274 274 274 274 273 272 273 272 273 273 273 274 278 279 280 278 277 276 276 277 278
272 271 271 270 269 269 270 269 269 270 270 270 272 275 276 276 275 274 275 275 275 275
269 267 268 266 266 267 266 266 266 267 267 266 267 271 272 273 271 271 271 273 273 273
268 263 264 265 264 264 264 265 265 265 265 264 264 268 270 271 269 268 269 270 272 274
265 263 263 262 263 262 262 263 261 262 262 263 264 264 269 271 269 268 268 268 269 271

GFSNIL_sfc_thetae_033.txt.gz
Theta_e
281 280 280 280 280 281 281 282 282 282 282 282 283 283 283 283 283 285 285 286 287 289
280 279 279 279 279 279 280 282 282 282 282 282 281 282 282 281 281 282 284 284 284 285
280 280 279 279 279 279 278 279 279 279 279 279 280 280 280 280 280 280 281 282 283 284
279 279 279 278 278 278 279 278 278 279 278 278 278 278 278 278 279 279 279 280 280 281
279 279 278 278 278 278 278 278 278 278 278 278 278 277 277 277 277 277 277 278 279 279
279 278 278 278 279 278 278 278 278 278 277 277 277 277 277 277 276 276 277 277 278 279
278 278 278 278 278 277 277 277 277 277 277 277 277 277 277 277 276 276 277 278 278 278
278 278 277 276 275 276 276 276 275 275 274 275 275 276 276 277 277 277 277 277 277 278
275 275 274 273 273 273 272 272 272 272 272 272 273 276 278 277 276 276 276 276 277 277
272 272 271 271 270 270 269 270 269 269 269 269 269 273 275 275 274 273 272 273 274 275
270 268 269 268 267 267 267 267 267 267 267 267 268 272 272 273 271 271 271 271 272 272
268 265 266 263 265 265 265 265 264 266 265 264 264 269 271 271 269 269 269 270 271 271
267 262 262 264 263 264 262 264 264 264 263 263 262 267 269 270 268 267 268 269 270 272
265 261 261 261 262 261 261 262 260 261 261 262 263 263 269 271 269 268 267 268 269 270

GFSNIL_sfc_thetae_036.txt.gz
Theta_e
279 279 279 279 278 278 279 279 280 279 280 280 280 281 280 280 280 281 282 282 283 285
278 278 278 277 278 277 278 280 278 278 278 278 279 279 279 278 278 278 279 280 282 282
278 278 278 278 278 278 278 278 278 278 278 277 278 277 277 277 278 277 277 278 278 279
278 278 278 278 278 278 278 278 278 278 277 277 277 277 276 276 276 276 276 277 277 278
279 278 278 277 278 278 277 278 277 277 277 277 276 276 276 275 275 275 275 276 276 276
278 278 277 277 277 277 277 276 276 276 276 275 276 275 276 276 275 275 275 276 276 276
278 277 277 277 276 276 275 274 274 273 273 273 274 274 275 276 275 275 276 277 277 277
278 277 276 274 274 273 273 272 272 272 271 272 272 273 274 274 274 274 274 275 276 276
275 274 273 272 272 271 271 270 270 270 269 269 270 273 275 275 273 272 272 271 272 273
271 271 270 270 269 269 268 268 268 268 268 267 268 272 274 274 272 271 271 270 271 271
270 268 268 267 267 267 267 266 266 266 266 266 267 271 272 273 271 270 270 270 270 270
268 265 266 263 264 264 264 264 263 265 264 263 263 269 271 271 270 269 269 269 270 270
267 262 262 264 262 263 261 264 264 264 263 263 262 267 270 271 269 267 268 269 270 272
265 262 261 260 261 259 258 262 259 260 261 261 262 263 269 272 270 269 269 269 270 271

GFSNIL_sfc_thetae_039.txt.gz
Theta_e
281 282 281 281 281 281 281 281 281 281 281 281 281 281 281 281 281 282 282 281 283 283
281 281 280 280 281 280 281 281 281 281 280 280 280 280 280 280 279 280 280 280 281 281
280 280 280 281 280 280 280 280 280 279 279 279 279 279 279 279 279 279 279 280 279 280
280 280 281 280 280 280 280 279 279 279 278 278 278 278 278 277 278 277 278 278 278 278
281 280 280 279 279 279 278 278 278 277 277 277 277 277 276 276 277 277 276 277 277 277
280 279 279 279 279 278 277 276 276 275 275 274 275 274 275 276 276 276 276 276 276 276
279 279 279 278 277 276 275 274 274 274 273 273 273 273 274 275 275 275 275 275 275 275
279 278 277 275 274 273 273 272 272 272 271 271 272 273 274 274 274 273 273 273 273 273
277 275 274 273 272 272 271 271 270 270 269 269 270 273 275 275 273 272 271 271 272 272
274 273 272 271 270 270 269 269 268 268 268 268 268 272 275 274 273 272 271 270 270 270
272 271 270 269 268 268 268 267 267 266 267 267 267 272 273 274 272 271 271 270 270 270
271 268 268 266 266 266 265 265 265 267 265 264 265 269 272 272 271 270 270 270 271 271
269 265 265 266 265 265 264 265 265 265 264 263 263 267 271 272 271 269 270 271 271 273
267 265 264 263 264 262 261 263 260 262 262 262 263 264 270 272 272 271 271 272 271 272

GFSNIL_sfc_thetae_042.txt.gz
Theta_e
288 288 287 287 287 286 286 285 286 285 285 285 284 284 285 285 285 285 285 284 285 285
287 287 286 286 286 286 286 284 285 284 284 284 284 283 284 284 283 284 284 284 284 284
286 286 286 286 285 285 285 284 283 283 283 283 283 283 283 283 283 282 283 282 282 282
286 286 286 285 285 284 284 283 282 282 281 281 281 281 281 281 281 280 281 282 281 281
285 285 285 285 284 284 282 282 281 280 280 279 279 279 279 279 279 279 279 279 279 279
285 285 285 284 283 282 281 280 279 278 278 277 277 277 278 278 278 278 278 278 277 277
285 285 284 283 282 280 279 278 277 277 276 276 276 276 276 277 278 278 277 277 277 276
285 285 283 281 279 278 277 276 276 275 275 275 274 275 276 277 277 276 276 276 276 275
284 282 280 278 277 276 275 275 274 273 273 273 273 273 276 276 276 275 274 274 274 274
282 280 279 277 275 275 274 274 273 272 272 272 272 272 275 275 275 275 274 273 273 273
280 279 277 275 274 274 273 272 272 272 271 271 271 272 273 275 275 274 273 273 273 273
279 277 275 273 273 273 272 271 271 271 270 269 269 271 273 273 274 273 273 273 274 273
278 275 273 273 272 272 271 271 270 270 269 268 267 269 271 273 274 273 273 274 274 276
275 273 273 272 271 270 269 269 267 267 268 267 268 268 271 273 273 273 273 274 274 275

GFSNIL_sfc_thetae_045.txt.gz
Theta_e
291 290 290 289 289 288 287 286 287 286 286 286 286 286 287 287 286 286 286 285 286 285
289 289 288 288 288 287 287 286 286 286 285 285 285 285 285 285 284 285 285 285 285 284
288 288 288 288 287 286 286 285 285 284 284 284 284 283 284 284 284 283 284 283 283 283
288 288 288 287 286 286 285 284 284 283 283 282 282 282 282 282 281 281 281 282 281 281
287 287 287 286 286 286 284 284 283 282 281 281 280 280 280 280 280 280 279 280 279 279
286 286 286 286 285 285 284 283 281 280 280 279 279 278 279 278 279 279 279 279 278 277
286 286 286 286 285 283 283 281 280 279 278 278 277 277 277 278 278 278 278 278 278 277
287 287 286 285 283 282 281 280 279 278 277 277 276 276 276 277 278 277 277 277 277 276
286 285 284 282 280 279 278 278 277 276 276 275 275 276 276 277 276 276 276 275 275 275
285 283 282 281 279 278 277 277 276 275 275 274 275 276 276 276 276 275 275 275 274 274
283 281 281 279 277 277 277 276 275 274 274 274 274 275 275 276 275 275 275 275 274 274
282 280 279 277 276 277 276 275 274 274 273 272 273 274 274 275 274 274 274 275 275 275
282 280 278 277 276 277 276 275 274 273 273 271 270 273 274 274 273 273 274 275 275 277
281 279 278 277 276 274 273 273 272 271 271 271 270 270 274 275 273 273 273 274 274 275

GFSNIL_sfc_thetae_048.txt.gz
Theta_e
287 287 286 285 284 283 282 282 282 282 282 282 282 282 282 281 281 280 280 280 280 280
285 285 284 284 283 282 282 283 282 281 281 281 281 281 281 280 279 279 279 279 279 279
285 284 284 283 282 281 281 282 281 280 280 280 280 279 279 278 278 278 278 279 278 278
284 284 284 283 282 281 281 281 280 280 279 279 278 278 277 277 277 277 277 277 276 277
284 283 282 282 282 281 280 280 279 279 278 278 278 277 277 276 276 276 276 276 276 275
282 282 281 281 281 280 279 278 278 278 277 277 277 276 276 276 276 275 275 276 275 275
281 281 281 281 280 279 279 278 277 277 276 276 276 275 276 276 275 275 276 276 275 275
281 281 281 280 279 279 278 277 277 276 275 275 275 275 275 276 275 275 275 275 276 275
282 281 281 279 278 278 277 276 276 275 275 274 275 278 277 277 276 276 275 274 274 274
281 282 280 279 277 276 275 275 274 274 274 273 274 278 278 278 276 275 274 275 274 274
282 280 278 277 276 275 275 274 273 273 273 273 273 278 278 278 275 274 274 274 274 274
281 279 278 277 275 275 274 272 272 272 270 270 271 277 278 277 274 274 274 275 274 274
281 280 278 277 275 274 271 273 273 272 270 270 268 276 277 277 273 268 272 273 275 277
279 279 278 276 272 273 271 272 270 270 269 269 269 269 276 277 274 271 270 271 272 274

GFSNIL_sfc_thetae_051.txt.gz
Theta_e
287 286 286 285 284 283 282 282 282 281 281 281 281 281 281 280 280 279 279 278 279 279
286 285 285 283 283 282 282 282 281 280 280 280 280 280 280 279 278 278 278 277 278 278
284 284 283 283 282 281 281 281 280 279 279 279 279 279 278 277 277 277 277 277 277 277
283 283 283 282 281 280 280 280 279 279 279 278 278 277 277 276 276 276 276 276 276 276
283 283 282 281 280 280 279 279 279 279 278 278 277 277 276 276 276 276 276 276 275 275
282 281 281 280 280 279 278 278 278 278 277 277 277 276 276 276 276 275 275 275 275 275
281 281 281 280 279 279 278 277 277 277 277 276 276 276 276 276 275 275 275 276 275 275
282 281 280 280 279 278 278 277 277 276 275 275 275 275 275 276 275 275 275 275 276 275
281 281 280 280 279 278 277 277 276 275 274 273 275 279 280 277 276 276 275 274 274 275
282 281 281 281 279 278 277 275 275 274 274 274 274 280 281 280 276 275 275 274 275 275
281 281 280 279 279 277 275 275 274 274 274 273 274 280 281 280 276 275 274 274 274 274
282 281 280 279 278 277 276 274 274 273 272 272 272 280 281 280 275 274 274 274 274 274
283 282 280 280 278 277 276 276 274 274 272 271 270 278 280 279 274 268 272 272 274 276
281 281 281 279 276 273 274 273 272 271 271 270 270 270 279 280 275 272 270 270 271 273

GFSNIL_sfc_thetae_054.txt.gz
Theta_e
285 284 284 283 283 282 282 282 281 281 281 281 281 281 281 280 280 279 278 278 278 279
285 284 283 282 282 282 281 281 280 280 280 280 280 279 279 279 278 277 277 277 277 278
285 284 284 283 281 281 280 280 279 279 278 279 279 279 278 277 277 277 276 277 277 277
284 283 283 281 281 280 280 279 279 279 279 278 278 278 277 277 276 276 276 276 276 276
283 282 281 281 280 280 280 279 279 279 278 278 277 277 277 276 276 276 276 276 275 275
282 282 281 280 280 280 279 278 278 278 277 277 277 276 276 276 276 275 275 275 275 275
282 282 281 280 280 279 279 278 278 278 277 277 276 276 276 276 275 275 275 275 275 275
282 282 281 280 280 279 278 278 278 277 276 276 275 276 275 276 275 275 275 275 276 275
281 281 281 280 279 279 278 277 277 277 276 274 275 280 281 277 275 276 275 274 275 275
282 281 281 280 280 279 278 278 277 276 275 275 275 281 283 282 276 275 275 275 275 275
282 281 281 280 279 279 278 277 277 276 276 275 275 281 283 283 277 276 275 274 274 274
282 282 280 280 279 279 278 277 276 277 275 275 275 281 283 282 276 275 274 274 274 274
283 283 281 281 280 280 279 278 277 276 275 275 274 279 282 282 275 271 273 273 274 276
283 283 283 282 281 280 278 277 275 274 273 272 272 272 281 282 276 274 271 271 271 273

GFSNIL_sfc_thetae_057.txt.gz
Theta_e
288 287 286 285 283 282 281 281 280 280 280 280 281 280 280 279 279 279 278 278 278 279
287 286 285 282 281 281 280 281 280 280 280 280 280 280 279 279 278 278 277 277 278 278
286 285 282 282 281 280 280 281 280 280 280 279 279 278 278 277 278 277 276 277 277 277
284 283 282 282 281 280 280 280 280 280 279 279 278 278 277 277 277 277 276 276 276 276
283 282 282 281 280 280 280 280 280 279 279 279 278 277 277 277 276 276 276 276 275 275
282 282 281 280 280 280 279 279 279 279 279 278 278 278 277 277 276 276 275 275 275 275
282 282 282 281 280 280 279 279 279 279 278 277 277 277 277 277 276 275 275 275 275 275
283 283 282 281 280 280 279 279 279 278 277 277 277 277 277 276 275 275 274 275 276 275
282 282 281 280 280 279 279 278 278 278 277 276 277 281 282 278 276 276 275 274 275 275
282 281 281 280 280 279 278 278 278 277 277 277 277 282 284 283 276 275 275 275 275 275
282 281 281 280 279 279 279 278 277 277 277 277 277 282 284 284 277 275 275 275 275 275
282 282 280 280 279 279 279 278 278 279 278 277 277 282 284 283 278 277 276 276 275 274
283 282 281 281 280 280 280 279 279 278 278 278 278 281 284 283 278 275 275 275 275 277
282 283 282 282 281 281 280 279 278 278 278 277 277 276 283 284 278 277 274 274 274 274

GFSNIL_sfc_thetae_060.txt.gz
Theta_e
291 291 290 289 287 286 284 282 281 280 280 280 280 280 280 280 279 279 279 278 278 278
290 289 288 286 286 285 284 282 280 280 279 280 280 280 279 279 279 279 278 278 278 278
289 288 287 285 283 282 282 281 280 279 280 279 279 279 279 278 278 278 278 278 278 277
287 286 285 284 283 282 281 280 280 280 280 279 279 279 279 279 278 278 277 277 277 277
286 285 284 284 282 281 280 280 280 280 280 279 279 279 279 278 278 278 277 277 277 275
284 284 283 282 281 280 279 280 280 280 280 279 279 278 279 278 278 278 277 277 276 275
284 284 283 282 281 280 280 279 279 280 279 279 279 278 278 278 277 277 277 276 276 275
284 284 283 281 280 280 279 279 279 279 278 278 278 278 278 277 277 277 276 276 276 275
283 283 282 281 280 280 279 279 279 278 278 277 278 282 283 279 277 277 276 275 275 275
283 282 281 280 280 279 279 279 278 278 278 277 277 283 284 283 277 277 276 276 276 275
282 282 281 280 280 279 279 278 278 278 278 278 278 283 285 285 278 277 276 276 276 275
283 282 281 280 279 279 279 278 278 279 278 278 278 283 284 284 281 278 276 276 276 275
283 282 281 281 280 280 279 279 278 278 279 278 279 283 284 285 282 278 278 277 276 278
282 282 282 281 280 279 279 279 278 278 278 279 279 280 284 287 282 279 278 277 276 276

GFSNIL_sfc_thetae_063.txt.gz
Theta_e
296 295 295 294 292 290 289 287 285 285 285 284 284 284 285 285 284 284 284 284 284 283
294 295 294 292 290 289 288 286 284 284 284 284 284 284 284 283 283 283 283 283 282 282
293 293 292 290 288 286 285 284 282 282 283 283 283 282 283 282 282 282 282 281 281 280
290 290 289 289 286 285 284 283 282 282 282 282 282 282 282 282 281 281 281 281 280 280
288 288 287 287 285 284 283 283 282 282 282 282 281 281 281 280 281 280 280 280 279 278
288 287 286 286 284 283 282 282 281 281 281 281 281 281 281 281 280 280 279 279 279 278
287 287 287 285 283 282 282 281 281 281 281 281 280 280 280 280 279 279 279 279 279 278
287 287 286 284 282 282 281 281 281 281 280 280 280 279 279 279 279 279 278 278 278 278
286 285 284 283 282 281 281 280 280 280 279 279 279 283 283 280 279 278 277 277 277 278
285 284 283 282 281 280 280 279 279 279 279 279 279 285 285 283 279 278 278 277 277 277
284 283 283 282 281 281 280 279 279 279 279 279 279 285 285 284 279 279 278 278 277 277
283 282 281 281 280 280 280 279 280 280 279 279 279 285 286 284 281 278 279 278 277 277
282 281 280 282 281 281 280 280 279 279 279 279 279 285 286 285 283 281 281 279 278 279
282 281 281 281 281 280 279 279 279 278 279 279 280 281 286 287 283 282 282 280 279 278

GFSNIL_sfc_thetae_066.txt.gz
Theta_e
311 308 308 304 305 301 301 303 299 292 290 291 294 298 298 298 296 295 294 292 290 289
308 306 304 302 306 305 304 299 291 289 288 289 290 294 294 293 290 291 290 290 289 288
305 305 304 300 299 297 298 291 287 286 286 287 288 291 291 290 289 289 288 287 286 286
302 301 299 295 294 292 290 286 286 285 285 285 286 288 289 288 287 287 285 286 285 284
300 299 297 294 293 291 288 287 285 284 284 284 284 287 287 286 286 286 284 284 283 282
299 297 296 295 292 291 288 286 283 283 283 282 283 284 286 286 285 285 284 283 283 282
298 296 294 291 289 289 288 285 283 283 282 282 282 282 284 284 284 284 284 283 283 281
296 295 293 289 287 287 286 284 283 282 282 282 281 281 281 283 283 283 282 282 281 281
294 291 289 287 285 284 284 283 282 281 281 280 280 284 285 284 283 282 281 280 280 281
291 289 288 286 284 283 282 282 281 281 281 280 280 285 285 285 282 282 281 280 280 279
289 288 287 285 284 283 282 281 281 280 280 281 280 286 286 284 282 282 281 280 282 281
288 287 286 284 284 283 282 281 282 281 280 280 280 286 286 283 281 280 279 281 282 281
287 286 284 285 284 284 283 281 280 280 281 281 281 286 286 284 281 280 280 281 282 281
286 285 285 285 284 283 282 280 279 279 280 280 281 284 286 286 283 282 283 284 282 281

GFSNIL_sfc_thetae_069.txt.gz
Theta_e
313 313 314 311 311 308 303 302 299 296 297 300 302 303 302 300 299 298 298 299 295 292
311 312 313 311 310 308 306 304 301 297 295 295 298 300 300 298 297 298 297 296 292 290
309 310 311 310 309 308 305 302 300 296 294 293 295 294 296 294 293 294 293 291 289 288
308 309 309 307 306 305 304 298 294 291 290 290 289 290 291 291 290 290 288 288 287 286
306 307 306 306 304 302 296 292 292 290 288 287 287 288 289 288 288 287 285 286 285 283
304 303 302 302 300 296 293 289 287 287 286 285 285 285 286 286 286 286 285 284 283 282
303 302 301 301 298 293 291 287 286 286 285 284 284 284 283 283 285 284 284 284 283 282
302 302 301 299 296 292 290 287 286 284 284 283 282 282 283 283 283 283 282 282 282 282
299 297 295 293 290 288 286 285 284 283 282 282 281 285 287 284 282 282 281 281 281 281
293 292 291 289 287 286 285 284 283 282 282 281 281 286 287 286 282 281 281 281 281 281
291 290 289 287 286 286 285 283 282 282 282 281 281 286 287 285 281 281 281 281 281 282
290 288 287 286 285 285 284 283 283 283 282 282 281 286 287 284 282 281 281 281 283 283
288 287 286 286 285 285 284 283 282 282 282 282 281 286 286 283 282 280 280 282 283 283
287 286 286 286 285 284 282 281 280 280 281 281 283 285 287 284 282 281 280 280 281 283

GFSNIL_sfc_thetae_072.txt.gz
Theta_e
308 306 307 307 306 305 303 304 303 303 304 304 305 304 302 300 299 299 298 297 295 294
306 306 307 306 305 305 303 302 299 300 300 302 303 303 302 300 298 299 298 298 294 289
304 304 305 305 303 302 301 301 298 298 298 298 299 300 301 299 298 297 295 292 288 287
302 303 304 304 302 301 300 298 297 296 296 294 294 296 298 296 294 294 291 289 287 285
301 302 301 301 301 299 298 293 293 291 292 291 292 292 294 292 291 290 288 287 285 284
299 300 300 299 299 297 293 290 288 287 288 288 289 289 291 291 289 290 288 287 285 283
298 299 299 298 296 293 289 286 285 286 287 287 286 287 286 287 287 287 286 285 284 283
298 298 297 294 292 288 287 285 285 284 284 285 285 284 285 285 285 284 283 282 282 282
293 292 291 290 289 287 285 284 283 283 283 283 283 287 288 286 284 283 283 281 281 282
289 289 288 288 286 285 284 282 282 282 282 282 282 287 289 287 283 283 282 281 281 282
287 287 285 284 284 283 282 282 281 281 281 282 282 287 288 287 282 282 281 281 281 282
285 284 284 283 282 281 281 280 283 283 281 282 281 287 288 285 282 281 281 281 282 283
283 282 282 282 281 280 280 283 282 282 282 282 281 286 288 285 282 280 280 281 282 283
281 280 280 279 279 280 282 281 281 280 281 281 282 285 287 286 282 281 280 280 281 284

GFSNIL_sfc_thetae_075.txt.gz
Theta_e
306 307 307 305 305 305 305 304 306 307 310 311 310 308 305 302 300 300 298 298 298 297
305 305 305 304 304 305 304 303 304 305 306 306 306 306 304 302 299 299 298 298 297 296
303 304 304 303 303 303 303 302 300 302 304 304 304 304 303 301 300 298 298 298 296 296
301 302 302 303 302 302 300 300 298 297 299 300 301 301 301 301 299 298 298 297 295 294
300 300 300 301 300 299 299 296 297 295 296 297 298 299 299 298 297 296 295 294 292 292
298 299 300 300 298 297 296 294 291 292 292 293 294 295 296 296 295 295 295 293 291 288
298 299 299 298 297 296 294 291 288 289 289 288 289 290 291 292 292 292 291 289 289 286
297 296 296 294 292 291 289 288 287 285 285 285 287 288 288 289 289 288 286 286 286 285
293 292 291 291 290 289 287 286 285 284 284 284 285 288 290 289 287 287 285 283 283 283
288 288 289 288 288 287 285 284 283 283 282 284 285 288 290 289 285 285 285 284 282 282
285 286 285 284 285 283 283 282 281 281 281 283 283 287 290 289 284 284 284 283 282 282
284 284 283 283 282 280 279 278 278 279 279 282 282 286 289 288 283 282 282 282 283 283
283 281 280 281 279 278 279 280 282 283 283 283 282 286 288 287 282 281 280 281 282 283
280 279 279 278 282 283 283 282 281 281 281 281 282 284 288 288 282 281 280 280 281 282

GFSNIL_sfc_thetae_081.txt.gz
Theta_e
310 309 310 307 306 308 309 310 310 314 317 316 316 315 312 309 306 304 303 302 301 300
304 305 306 305 304 306 304 304 303 306 310 314 314 313 312 309 306 305 303 303 302 301
300 301 302 302 302 301 301 301 300 300 302 303 305 308 311 310 308 305 304 303 302 301
298 298 299 299 300 300 299 299 299 299 299 300 301 302 304 306 307 305 304 303 302 300
297 297 297 298 298 298 299 297 299 297 298 300 302 303 303 303 304 303 301 300 299 299
296 296 296 296 296 296 296 295 294 294 295 299 300 301 301 302 302 302 302 301 298 298
294 295 295 295 295 294 294 294 292 292 293 294 296 296 297 295 298 299 299 299 298 298
291 291 291 290 289 289 289 290 290 289 289 289 292 293 293 291 294 294 294 294 294 294
286 286 286 286 286 287 287 287 287 287 287 287 289 292 293 293 290 290 290 291 289 288
284 284 285 285 285 286 286 286 285 285 285 285 285 291 292 292 288 287 288 288 287 285
283 283 283 283 283 284 283 283 283 283 283 282 283 289 290 290 286 286 286 287 286 286
282 281 281 282 282 282 279 279 279 280 278 281 285 288 289 288 286 286 285 285 285 285
281 280 280 283 282 283 280 283 282 284 284 284 284 286 287 287 285 284 283 282 283 283
279 278 280 280 282 283 283 283 283 282 282 282 282 283 286 287 284 283 281 281 281 282

GFSNIL_sfc_thetae_084.txt.gz
Theta_e
309 310 310 309 307 308 308 312 315 316 318 318 319 317 315 312 308 306 305 305 305 303
301 303 304 305 304 305 304 305 305 307 314 315 315 315 315 312 308 307 305 304 304 304
297 298 298 299 300 300 301 301 300 301 302 306 311 313 313 312 309 306 305 304 303 303
296 296 296 296 297 297 298 298 298 298 298 299 300 302 306 308 309 306 304 304 302 302
295 295 295 296 296 296 296 296 296 296 296 297 298 298 299 301 303 304 304 304 303 302
292 292 292 293 294 294 294 294 293 293 293 295 297 300 301 302 302 302 303 303 300 301
289 289 289 289 290 290 290 290 290 290 290 290 291 295 296 296 299 300 301 301 300 299
286 286 286 286 286 286 286 287 287 287 287 287 288 291 292 292 294 295 296 295 294 294
283 284 284 284 284 284 284 285 285 285 285 285 286 291 293 294 292 290 290 291 291 290
282 282 283 283 283 284 284 284 283 283 283 283 284 290 292 292 290 289 289 288 288 287
281 281 281 281 281 282 282 282 282 282 282 281 282 289 290 290 288 287 287 287 287 287
280 280 279 279 282 283 283 279 281 281 281 280 282 288 289 288 286 286 286 286 285 286
279 277 278 279 281 281 279 282 282 281 280 281 283 286 287 287 285 285 285 283 283 284
277 276 276 277 277 278 278 280 277 280 280 278 282 282 285 287 285 285 284 282 282 282

GFSNIL_sfc_thetae_087.txt.gz
Theta_e
308 311 312 312 312 313 313 315 317 319 319 320 319 319 318 315 313 311 308 308 308 307
300 301 302 303 305 307 308 308 309 309 312 315 315 317 317 314 312 310 308 307 307 306
298 299 299 300 300 300 301 302 303 304 304 306 310 312 313 313 312 309 308 307 306 306
295 296 297 297 297 298 298 299 299 300 301 301 302 304 306 308 309 308 308 306 305 304
292 293 293 293 294 295 295 296 296 297 297 298 299 301 300 301 303 304 304 305 303 303
290 290 289 290 290 291 291 292 292 293 293 295 296 298 299 300 301 302 302 303 302 302
288 288 288 288 288 288 288 289 289 290 289 290 291 291 293 295 298 299 300 300 300 300
286 286 286 286 286 286 286 287 287 287 288 288 289 289 290 291 293 293 294 295 296 297
284 284 284 284 284 284 285 285 285 286 286 286 287 289 291 291 290 290 290 291 292 291
282 282 283 282 282 283 283 284 284 284 284 285 285 288 290 290 288 289 289 289 288 288
281 281 281 280 280 282 283 282 283 283 283 284 284 288 289 289 288 288 288 288 288 287
280 279 279 278 279 280 281 282 282 283 282 282 283 286 288 288 287 286 286 287 287 286
279 277 277 278 278 279 279 280 282 282 282 281 281 284 286 287 286 285 285 286 285 284
280 278 278 279 279 278 277 280 280 280 282 280 280 281 285 286 285 284 284 285 284 284

GFSNIL_sfc_thetae_090.txt.gz
Theta_e
311 315 316 316 316 318 318 319 319 319 320 321 320 321 320 318 316 314 311 310 310 310
306 306 306 307 308 308 309 308 309 311 312 314 315 316 316 315 314 313 312 311 310 310
301 302 303 303 302 303 304 304 305 306 307 308 309 311 312 313 314 314 312 311 310 309
298 299 299 299 299 298 300 299 300 301 301 303 304 305 306 308 309 308 308 310 309 308
296 296 295 295 295 295 295 296 296 296 297 298 299 300 301 302 303 304 303 304 305 305
294 294 293 293 293 294 293 294 295 294 294 294 295 296 297 298 299 301 301 301 300 301
292 291 292 292 292 292 292 293 293 293 292 292 292 293 294 294 295 296 296 298 298 298
290 290 290 290 289 290 290 290 290 290 291 291 291 290 291 291 292 292 292 293 294 295
288 287 288 287 287 287 287 288 288 289 289 288 288 289 290 291 290 289 289 290 291 292
286 286 286 285 285 286 286 287 286 287 288 288 288 288 289 289 289 290 289 289 289 289
285 284 284 284 284 285 285 285 285 286 286 286 287 288 288 288 289 290 290 290 290 289
283 282 282 281 283 283 283 284 284 285 285 285 286 287 287 287 287 287 287 288 289 289
283 282 281 282 281 282 282 282 283 283 285 284 285 286 286 286 286 284 285 286 286 286
281 281 282 282 284 283 283 283 284 283 283 284 284 284 285 285 285 284 284 285 286 286

GFSNIL_sfc_thetae_093.txt.gz
Theta_e
317 317 315 313 313 313 313 313 312 313 315 317 318 317 317 318 317 317 315 313 313 312
307 307 307 307 307 307 307 306 307 308 308 310 311 312 312 314 313 313 313 313 312 311
302 303 303 302 301 301 302 302 302 302 303 304 305 307 308 309 310 310 310 309 309 309
299 300 299 299 298 298 299 298 298 298 299 300 300 301 302 303 304 304 305 306 306 305
298 298 297 296 296 296 296 297 297 297 297 297 297 298 298 298 299 299 300 301 302 301
295 295 294 294 295 295 295 295 295 295 294 294 295 294 295 295 295 296 297 297 297 297
293 293 293 293 293 293 293 293 292 293 292 292 292 293 292 291 292 293 293 294 294 294
292 291 291 291 290 290 290 290 290 289 290 290 290 290 289 289 290 290 290 291 290 291
289 289 289 288 288 288 288 288 288 288 288 288 288 290 290 289 288 288 288 288 289 290
287 287 287 286 286 286 286 287 286 287 287 287 288 289 289 289 287 287 288 288 288 288
286 285 285 284 284 285 285 285 285 285 285 286 286 288 288 288 286 287 287 287 287 286
284 283 283 281 283 284 284 284 284 284 284 284 284 287 287 287 285 285 285 286 286 286
283 282 282 283 283 284 284 284 284 284 285 284 283 286 286 286 284 283 284 285 285 286
281 280 281 282 283 283 283 284 284 284 285 285 284 284 286 286 284 283 283 284 284 286

GFSNIL_sfc_thetae_096.txt.gz
Theta_e
310 307 305 304 304 303 302 302 303 304 304 305 306 306 308 308 310 311 310 312 312 312
300 300 299 298 299 298 298 299 299 299 300 301 302 302 302 303 303 304 304 305 305 307
296 296 296 296 295 295 295 296 295 295 296 297 297 298 298 298 299 299 299 301 300 301
294 295 294 293 293 293 294 294 294 294 294 294 294 294 294 294 295 295 295 296 296 297
293 292 292 291 292 292 292 292 292 292 292 292 292 292 291 291 291 291 291 293 293 293
290 290 290 290 290 291 290 290 290 290 289 289 290 289 290 289 289 290 290 290 290 290
289 289 289 289 289 288 288 288 288 288 287 287 287 288 287 287 287 288 288 289 289 289
288 288 287 286 286 285 284 286 285 284 284 285 286 287 286 285 286 285 286 286 287 287
285 285 284 284 284 283 283 283 283 283 283 283 285 289 290 289 285 284 284 284 285 285
284 283 283 283 282 282 282 282 282 282 282 282 282 288 289 288 285 284 283 284 285 285
282 281 282 281 280 281 281 280 280 281 281 281 282 287 288 287 284 283 283 283 285 285
281 279 279 276 278 279 278 278 277 280 278 278 283 286 286 286 284 283 283 284 285 285
280 276 276 278 277 277 276 281 281 283 284 283 284 286 286 285 284 282 282 284 284 285
278 275 275 275 276 274 275 278 275 279 280 284 281 280 287 287 284 283 282 283 283 283

GFSNIL_sfc_thetae_099.txt.gz
Theta_e
306 305 303 302 300 298 298 298 298 299 299 300 300 300 300 301 301 301 301 301 302 303
298 298 296 296 296 295 295 296 295 295 295 296 296 296 297 296 296 296 296 296 297 298
295 295 294 294 293 293 293 293 293 293 293 293 293 293 293 293 294 292 292 294 293 294
293 292 292 292 291 291 291 291 291 291 291 291 291 291 291 290 290 289 289 290 290 291
291 290 290 289 289 289 289 289 289 289 289 289 289 289 289 287 287 287 287 288 289 288
289 288 288 288 288 288 287 287 287 287 287 287 287 287 287 287 287 287 287 287 286 287
287 287 287 286 286 286 286 286 285 285 285 285 285 286 285 285 285 285 285 286 285 285
286 286 285 284 284 284 284 284 284 283 283 283 284 285 285 284 284 283 283 283 283 285
284 283 283 283 283 283 283 283 282 282 282 282 283 287 288 287 285 284 282 282 284 285
283 283 283 282 282 282 282 281 281 281 281 281 281 287 287 286 285 284 282 283 283 284
282 282 282 281 280 281 281 280 280 280 280 280 281 287 286 286 284 284 284 284 284 284
281 280 279 277 278 279 278 277 276 279 276 278 279 286 287 286 284 284 283 284 284 284
280 278 276 277 276 277 275 279 279 279 276 276 277 285 287 286 284 283 283 284 284 284
279 276 276 275 276 273 271 273 268 273 275 275 277 279 286 287 284 283 283 283 283 283

GFSNIL_sfc_thetae_102.txt.gz
Theta_e
308 305 304 303 301 299 297 295 296 296 296 296 296 296 297 296 296 294 294 294 294 296
300 299 297 296 296 294 293 294 293 293 293 293 293 293 293 292 290 290 291 291 291 292
295 295 294 294 292 291 291 291 291 290 290 290 290 291 290 289 289 288 288 290 289 289
292 292 291 291 290 290 289 289 289 289 289 288 288 289 288 287 287 287 287 287 287 287
290 290 289 288 288 288 288 287 287 287 287 287 287 287 286 285 286 285 285 285 285 285
288 288 287 286 287 287 286 286 285 286 285 285 285 285 285 285 285 284 284 284 283 283
286 286 286 285 285 285 285 284 284 284 283 283 283 284 284 285 284 284 283 284 283 283
285 285 284 283 283 283 283 283 283 283 282 282 283 284 284 284 284 284 283 282 283 285
284 283 282 282 283 283 283 282 282 282 282 281 283 287 287 286 284 284 283 282 283 284
282 282 283 283 283 282 282 282 281 281 281 281 281 286 286 286 284 283 283 283 283 283
283 282 282 281 281 281 281 281 281 281 280 280 281 286 287 287 284 284 284 284 284 283
282 281 280 279 279 280 279 278 277 279 276 275 279 284 287 285 283 282 282 282 284 284
281 280 279 279 279 278 277 278 278 278 276 275 273 281 286 286 280 279 280 282 283 284
279 278 278 278 278 276 274 275 270 273 272 271 273 275 285 286 281 280 282 282 282 283

GFSNIL_sfc_thetae_105.txt.gz
Theta_e
318 316 313 309 305 301 299 297 295 294 294 294 294 294 293 291 291 290 290 289 290 291
306 305 302 299 298 296 295 293 292 291 291 291 291 291 290 288 288 288 288 288 288 288
298 297 296 296 294 292 291 290 290 289 289 289 289 288 288 287 287 287 287 287 286 286
293 294 293 291 290 290 289 289 288 288 287 287 287 287 286 286 285 285 285 285 284 284
291 291 290 289 288 288 287 287 286 286 286 286 286 285 285 284 284 283 283 283 283 282
288 288 287 287 286 286 285 285 285 285 284 284 284 284 284 284 283 283 282 282 282 282
287 287 286 286 285 285 285 284 284 283 283 283 283 284 284 284 283 282 282 283 283 284
285 285 284 284 284 283 283 283 283 282 282 282 283 284 283 284 283 283 282 283 284 284
284 284 283 283 282 282 282 282 282 282 282 281 283 288 287 285 283 282 282 282 283 284
283 283 283 282 282 282 281 282 281 281 281 280 282 287 286 286 283 282 282 282 283 283
282 282 281 281 281 281 281 281 280 281 281 281 282 286 286 287 283 282 282 282 282 283
282 281 281 280 280 280 280 278 278 280 279 279 280 284 286 286 282 282 282 282 282 283
282 282 281 280 279 279 278 279 280 280 279 277 275 281 285 286 280 275 279 280 282 283
281 281 280 279 278 277 277 278 277 277 276 276 275 276 284 285 281 279 276 276 277 280

GFSNIL_sfc_thetae_108.txt.gz
Theta_e
318 322 320 315 311 306 302 299 298 296 295 294 293 291 291 290 289 289 288 287 288 288
319 315 310 306 303 300 297 295 293 292 291 290 290 289 288 287 287 287 286 286 286 286
310 308 304 301 297 296 294 292 290 289 289 288 287 287 287 286 286 285 285 285 285 284
299 299 298 297 295 293 291 289 288 287 287 287 286 286 285 285 285 284 283 283 283 283
295 295 293 292 290 291 288 287 287 286 286 286 285 285 285 284 283 283 283 282 282 281
292 291 290 288 287 287 286 286 285 285 285 284 284 284 284 283 283 282 282 281 281 282
290 289 287 287 286 286 285 285 284 284 283 284 283 284 284 283 282 282 282 282 283 283
287 286 286 285 285 284 284 283 283 283 282 283 283 284 283 283 283 282 282 282 283 283
285 285 284 284 284 283 283 283 282 282 282 282 284 289 287 284 283 283 282 282 282 283
284 284 284 283 283 282 281 281 281 281 281 281 283 288 287 286 283 282 282 282 282 282
283 283 282 282 281 281 281 280 280 280 281 281 283 288 287 286 283 282 282 282 282 282
283 282 281 281 281 280 280 279 279 280 279 280 281 286 287 286 283 283 283 283 282 281
283 283 282 281 280 279 280 280 280 280 278 279 279 283 286 286 283 280 281 281 282 282
282 282 282 281 279 279 279 279 277 277 277 277 278 280 284 286 283 281 279 279 279 280

GFSNIL_sfc_thetae_111.txt.gz
Theta_e
326 326 324 322 317 314 309 305 302 300 300 298 297 296 296 295 294 293 293 293 293 292
324 323 320 315 313 307 302 299 297 297 295 294 293 293 292 292 291 291 291 291 291 290
321 318 313 309 304 302 297 295 294 293 292 291 291 291 291 290 289 289 289 289 288 288
310 309 306 305 301 299 295 293 292 291 290 289 289 289 289 288 288 287 287 287 287 286
301 301 301 300 297 295 292 292 290 290 289 288 288 288 288 287 287 286 286 285 285 285
296 298 297 294 293 292 290 289 288 288 287 287 287 287 287 286 286 285 285 285 284 284
293 294 293 291 290 289 289 288 287 287 286 286 286 286 286 285 285 284 284 284 285 285
291 291 289 288 287 287 287 286 286 285 285 285 286 285 285 285 284 284 283 284 284 285
288 287 287 286 285 286 285 285 285 284 284 284 285 288 287 285 284 284 283 283 284 284
286 286 286 285 285 284 284 284 283 283 283 284 286 289 288 286 284 284 284 283 283 283
286 285 284 284 284 283 283 283 282 282 283 284 285 289 288 286 284 284 284 284 284 284
286 284 283 283 282 282 282 282 282 282 282 283 284 288 288 286 284 283 283 284 284 284
285 285 284 284 282 282 283 282 282 282 282 282 283 288 288 287 284 283 283 283 283 282
284 285 284 283 282 282 282 281 281 281 280 280 281 283 287 288 284 284 283 282 282 283

GFSNIL_sfc_thetae_114.txt.gz
Theta_e
330 330 332 332 330 326 323 322 314 314 313 307 305 303 304 304 304 304 301 299 298 297
327 326 327 329 330 326 322 313 307 306 303 300 299 300 302 300 297 298 298 297 296 295
325 326 326 325 322 318 312 307 305 300 300 296 296 298 298 296 296 295 295 295 294 293
324 324 320 316 311 308 304 303 303 302 296 295 294 295 295 295 294 293 292 292 292 291
313 317 314 316 310 305 300 302 296 298 294 294 294 294 293 292 292 291 290 290 290 289
310 310 311 307 305 303 297 297 293 295 293 292 292 292 292 291 291 290 290 289 289 288
306 306 306 302 299 297 295 293 290 292 291 291 291 291 290 290 289 288 288 288 288 287
300 300 297 295 293 290 292 290 292 289 290 290 290 288 289 289 288 287 287 287 286 287
294 291 291 289 288 288 288 288 288 287 288 288 286 289 289 289 287 287 286 285 285 286
291 290 289 287 286 286 286 287 286 287 288 287 287 289 289 288 287 286 286 285 285 284
289 288 287 286 286 286 286 285 285 286 287 287 287 289 289 286 287 286 286 285 285 285
289 288 287 286 286 286 285 285 285 286 286 287 288 289 288 286 286 285 284 285 285 285
289 288 287 287 286 285 286 285 285 285 286 286 287 289 288 286 286 284 284 284 284 284
288 288 288 287 286 285 285 285 285 284 285 285 286 288 288 287 285 285 284 284 283 284

GFSNIL_sfc_thetae_117.txt.gz
Theta_e
333 333 333 333 332 331 329 326 326 325 323 318 316 312 309 309 309 311 309 304 301 299
332 332 331 332 333 331 331 326 324 321 315 311 308 307 305 303 301 303 302 299 298 296
330 330 329 329 329 328 328 319 317 312 309 306 305 303 303 300 300 299 298 297 295 294
326 327 326 325 326 322 318 313 312 309 305 304 301 301 299 298 297 296 294 295 293 292
323 322 322 322 318 312 310 308 308 304 301 300 298 298 297 294 294 293 292 292 291 290
310 315 319 317 312 308 306 303 302 299 298 296 295 295 295 293 293 292 291 291 290 289
309 310 312 314 309 305 303 299 299 296 295 294 294 293 292 291 291 291 290 290 290 289
307 308 305 300 299 296 298 295 295 291 290 290 291 290 290 290 289 288 288 288 288 288
301 298 295 293 292 290 290 290 289 290 289 289 288 291 291 290 288 287 286 286 286 287
293 292 291 290 289 288 289 288 288 288 288 288 287 291 291 290 287 286 286 285 285 284
291 290 289 288 288 288 288 287 287 288 287 288 287 291 290 288 287 286 286 286 285 284
290 288 288 287 287 287 286 286 286 286 287 287 287 290 289 287 286 285 285 285 285 285
290 288 288 288 287 287 287 285 285 285 287 286 287 290 289 287 285 284 284 284 285 284
288 287 289 288 287 286 285 284 284 285 285 286 287 288 289 288 285 284 284 283 283 284

GFSNIL_sfc_thetae_120.txt.gz
Theta_e
329 329 329 328 329 328 328 327 327 326 325 321 315 314 315 314 313 312 311 307 301 296
329 329 329 329 329 329 329 327 321 322 320 314 312 310 310 309 307 306 301 298 295 293
328 329 329 329 327 328 328 325 321 318 317 311 309 309 308 303 301 299 297 296 293 292
323 325 326 327 325 322 320 318 317 314 310 308 307 306 303 300 297 295 293 293 291 290
315 317 318 318 318 318 314 311 312 309 308 305 304 302 300 297 295 294 292 291 289 289
306 311 314 314 312 311 309 307 306 306 305 302 301 300 298 297 295 293 292 290 289 288
303 305 307 312 310 307 305 303 302 302 302 299 298 297 295 293 292 291 290 289 288 288
301 302 302 300 299 297 298 298 297 295 293 293 294 293 291 291 291 289 287 287 287 287
298 295 293 292 292 291 290 291 290 289 290 291 292 293 293 291 289 288 287 286 285 286
291 291 290 289 288 288 289 288 288 289 289 289 289 292 292 290 288 287 286 286 285 284
289 288 287 287 288 288 288 287 287 287 288 287 286 292 292 289 287 286 285 285 284 284
287 285 286 285 287 287 286 286 286 286 286 286 286 291 290 287 286 285 285 284 284 284
287 284 284 284 284 283 286 285 285 285 286 286 287 291 290 288 286 285 284 283 284 284
284 282 283 282 282 282 282 284 284 284 285 286 287 288 290 289 285 285 283 282 282 284